Location: Innerarity Island Observatory
(30.3139°N, 87.4867°W)
Time: 08:40:18
(UTC-05:00)

JAS-2 - Visible Passes

Search period start: 01 September 2014 00:00
Search period end: 11 September 2014 00:00
Orbit: 799 x 1322 km, 98.5° (Epoch: 31 August)

Date Brightness Start Highest point End Pass type
(mag) Time Alt. Az. Time Alt. Az. Time Alt. Az.
02 Sep 12.3 05:33:48 10° ENE 05:36:43 14° E 05:39:46 10° SE visible
04 Sep 12.4 05:29:09 10° ENE 05:31:47 13° E 05:34:32 10° ESE visible
06 Sep 12.5 05:24:33 10° ENE 05:26:52 12° E 05:29:16 10° ESE visible
08 Sep 12.6 05:20:03 10° ENE 05:21:57 12° E 05:23:54 10° ESE visible
09 Sep 11.3 06:06:54 10° NNE 06:12:12 37° E 06:18:03 10° SSE visible
10 Sep 12.8 05:15:45 10° E 05:17:02 11° E 05:18:21 10° ESE visible
